Home > Weather > Rheine > Past weeks

Flag for Germany Past Weather in Rheine, North Rhine-Westphalia, Germany — Yesterday and Last 2 Weeks

Now
70 °F

Mild.


Feels Like: 70 °F
Forecast: 50 / 71 °F
Wind: 7 mph from North

Location: Rheine-Bentlage

Current Time: Aug 29, 2016 at 8:01:59 PM

Latest Report: Aug 29, 2016 at 6:20 PM


Visibility: N/A

Pressure: 30.15 "Hg

Humidity: 60%

Dew Point: 55 °F

Location of RheineLocation

Past Weather in Rheine — Graph

°F

Rheine Temperature Yesterday

Maximum temperature yesterday: 86 °F (at 12:20 PM)
Minimum temperature yesterday: 66 °F (at 6:20 AM)
Average temperature yesterday: 74 °F

High & Low Weather Summary for the Past Weeks

 TemperatureHumidityPressure
High90 °F (Aug 25, 4:20 PM)100% (Aug 15, 7:20 AM)30.33 "Hg (Aug 15, 7:20 AM)
Low50 °F (Aug 15, 6:20 AM)36% (Aug 18, 5:20 PM)29.77 "Hg (Aug 19, 5:20 PM)
Average67 °F73%30.04 "Hg
* Reported Aug 14 6:20 PM — Aug 29 6:20 PM, Rheine, Weather by CustomWeather, © 2016

Note: Actual official high and low records may vary slightly from our data, if they occured in-between our weather recording intervals... More about our weather records

Advertising

Rheine Weather History for the Previous 24 Hours

Scroll right to see more
 ConditionsComfort  
Time TempWeatherWind HumidityBarometerVisibility
6:20 PM
Mon, Aug 29
70 °FMild.7 mph60%30.15 "HgN/A
5:20 PM68 °FMild.10 mph64%30.12 "HgN/A
4:20 PM68 °FMild.7 mph64%30.12 "HgN/A
3:20 PM68 °FScattered clouds.9 mph64%30.09 "HgN/A
2:20 PM64 °FPartly sunny.8 mph83%30.09 "HgN/A
1:20 PM68 °FPartly sunny.13 mph64%30.09 "HgN/A
12:20 PM66 °FPartly sunny.10 mph68%30.07 "HgN/A
11:20 AM66 °FPartly sunny.10 mph68%30.07 "HgN/A
10:20 AM66 °FPartly sunny.9 mph73%30.04 "HgN/A
9:20 AM64 °FBroken clouds.10 mph83%30.01 "HgN/A
8:20 AM63 °FBroken clouds.10 mph88%30.01 "HgN/A
7:20 AM63 °FPartly cloudy.9 mph88%29.98 "HgN/A
6:20 AM63 °FPartly cloudy.9 mph83%29.98 "HgN/A
5:20 AM63 °FMild.9 mph83%29.95 "HgN/A
4:20 AM63 °FMild.8 mph83%29.95 "HgN/A
3:20 AM63 °FMild.6 mph77%29.95 "HgN/A
2:20 AM61 °FCool.6 mph88%29.95 "HgN/A
1:20 AM63 °FMild.5 mph77%29.98 "HgN/A
12:20 AM64 °FMild.7 mph73%29.98 "HgN/A
11:20 PM
Sun, Aug 28
66 °FMild.8 mph68%29.98 "HgN/A
10:20 PM66 °FMild.7 mph68%29.98 "HgN/A
9:20 PM68 °FMild.7 mph64%29.95 "HgN/A
8:20 PM70 °FMild.9 mph60%29.95 "HgN/A
Weather by CustomWeather, © 2016

See weather overviewHow to use our weather pages